Find Kosmos-864

NORAD ID: 9509 Int'l Des: 1976-108 Owner: VMF Country: SU operational
LEOCIRCULARPOLAR

Current View

Loading 3D Globe...

About Kosmos-864

Description loading...

Upcoming Passes

Passes for default location (London). Set your location on the main map for personalized predictions.

Altitude History

Loading altitude history...

Two-Line Element Set

1 9509U 76108A 26149.94048450 .00000065 00000-0 51200-4 0 9994
2 9509 82.9394 163.1095 0029503 192.8498 212.9962 13.75579322487931
Epoch: May 29, 2026 • Age: 19 hours

Current Status

Altitude 1002.0 km
Velocity 7.35 km/s
Sub-Earth Point -81.51°S, 106.41°W
Type other

Most Searched